Home > Weather > Temuco > Past weeks

Flag for Chile Past Weather in Temuco, Chile — Yesterday and Last 2 Weeks

Now
52 °F

Drizzle. Fog.


Feels Like: 49 °F
Forecast: 34 / 49 °F
Wind: 9 mph from Northeast

Location: Concepcion Airport

Current Time: Jun 29, 2016 at 12:36:20 PM

Latest Report: Jun 29, 2016 at 12:00 PM


Visibility: 2 mi

Pressure: 30.12 "Hg

Humidity: 94%

Dew Point: 50 °F

Location of TemucoLocation

Past Weather in Temuco — Graph

°F

Temuco Temperature Yesterday

Maximum temperature yesterday: 52 °F (at 4:00 PM)
Minimum temperature yesterday: 37 °F (at 8:00 AM)
Average temperature yesterday: 46 °F

High & Low Weather Summary for the Past Weeks

 TemperatureHumidityPressure
High63 °F (Jun 16, 4:00 PM)100% (Jun 15, 2:00 AM)30.36 "Hg (Jun 15, 2:00 AM)
Low36 °F (Jun 25, 7:00 AM)47% (Jun 25, 1:00 PM)29.95 "Hg (Jun 28, 4:00 PM)
Average48 °F86%30.14 "Hg
* Reported Jun 14 11:00 AM — Jun 29 11:00 AM, Temuco, Weather by CustomWeather, © 2016

Note: Actual official high and low records may vary slightly from our data, if they occured in-between our weather recording intervals... More about our weather records

Advertising

Temuco Weather History for the Previous 24 Hours

Scroll right to see more
 ConditionsComfort  
Time TempWeatherWind HumidityBarometerVisibility
11:00 AM
Wed, Jun 29
50 °FDrizzle. Fog.5 mph100%30.12 "Hg2 mi
10:00 AM50 °FDrizzle. Fog.9 mph100%30.09 "Hg2 mi
9:00 AM52 °FDrizzle. Fog.8 mph94%30.09 "Hg2 mi
8:00 AM50 °FDrizzle. Cloudy.7 mph94%30.07 "Hg4 mi
7:00 AM52 °FMostly cloudy.7 mph88%30.07 "HgN/A
6:00 AM52 °FMostly cloudy.7 mph88%30.07 "HgN/A
5:00 AM50 °FOvercast.6 mph94%30.04 "HgN/A
4:00 AM52 °FOvercast.6 mph88%30.04 "HgN/A
3:00 AM52 °FOvercast.6 mph94%30.04 "HgN/A
2:00 AM52 °FOvercast.7 mph94%30.04 "HgN/A
1:00 AM50 °FOvercast.3 mph88%30.04 "HgN/A
12:00 AM50 °FOvercast.3 mph94%30.04 "HgN/A
11:00 PM
Tue, Jun 28
50 °FOvercast.2 mph88%30.04 "HgN/A
10:00 PM50 °FOvercast.2 mph88%30.01 "HgN/A
9:00 PM50 °FOvercast.2 mph88%30.04 "HgN/A
8:00 PM50 °FOvercast.No wind88%30.01 "HgN/A
7:00 PM50 °FOvercast.No wind88%29.98 "HgN/A
6:00 PM50 °FOvercast.7 mph88%30.01 "HgN/A
5:00 PM50 °FLow clouds.3 mph88%29.98 "HgN/A
4:00 PM52 °FScattered clouds.6 mph82%29.95 "HgN/A
3:00 PM50 °FPartly sunny.1 mph88%29.98 "HgN/A
2:00 PM50 °FLow clouds.7 mph94%30.01 "HgN/A
1:00 PM46 °FFog.3 mph100%29.98 "Hg1 mi
12:00 PM46 °FCool.2 mph100%30.01 "Hg1 mi
Weather by CustomWeather, © 2016

See weather overviewHow to use our weather pages